Time,TemperatureF,DewpointF,PressureIn,WindDirection,WindDirectionDegrees,WindSpeedMPH,WindSpeedGustMPH,Humidity,HourlyPrecipIn,Conditions,Clouds,dailyrainin,SoftwareType,DateUTC
2013-03-16 00:00:00,59.7,42.0,30.15,WSW,242,0.0,0.0,52,0.00,,,0.00,Wunderground v.1.13,2013-03-16 04:00:00,
2013-03-16 00:01:00,59.7,42.0,30.15,WSW,242,0.0,0.0,52,0.00,,,0.00,Wunderground v.1.13,2013-03-16 04:01:00,
2013-03-16 00:03:00,59.6,41.9,30.16,WSW,242,0.0,0.0,52,0.00,,,0.00,Wunderground v.1.13,2013-03-16 04:03:00,
2013-03-16 00:05:00,59.5,42.3,30.15,WSW,242,0.0,0.0,53,0.00,,,0.00,Wunderground v.1.13,2013-03-16 04:05:00,
2013-03-16 00:11:00,59.6,42.4,30.15,SSE,167,0.0,0.0,53,0.00,,,0.00,Wunderground v.1.13,2013-03-16 04:11:00,
2013-03-16 00:17:00,59.6,42.4,30.15,ESE,111,1.0,1.0,53,0.00,,,0.00,Wunderground v.1.13,2013-03-16 04:17:00,
2013-03-16 00:23:00,59.4,42.3,30.15,ESE,112,0.0,1.0,53,0.00,,,0.00,Wunderground v.1.13,2013-03-16 04:23:00,
2013-03-16 00:28:00,59.3,42.2,30.15,ESE,112,0.0,0.0,53,0.00,,,0.00,Wunderground v.1.13,2013-03-16 04:28:00,
2013-03-16 00:34:00,59.2,42.1,30.14,SSW,210,0.0,0.0,53,0.00,,,0.00,Wunderground v.1.13,2013-03-16 04:34:00,
2013-03-16 00:39:00,59.3,42.2,30.14,SSW,211,1.0,3.0,53,0.00,,,0.00,Wunderground v.1.13,2013-03-16 04:39:00,
2013-03-16 00:44:00,59.3,42.2,30.15,SW,223,1.0,1.0,53,0.00,,,0.00,Wunderground v.1.13,2013-03-16 04:44:00,
2013-03-16 00:50:00,59.2,42.1,30.14,WNW,295,0.0,0.0,53,0.00,,,0.00,Wunderground v.1.13,2013-03-16 04:50:00,
2013-03-16 00:57:00,59.1,42.0,30.14,North,5,0.0,0.0,53,0.00,,,0.00,Wunderground v.1.13,2013-03-16 04:57:00,
2013-03-16 01:02:00,58.9,42.3,30.14,North,5,0.0,0.0,54,0.00,,,0.00,Wunderground v.1.13,2013-03-16 05:02:00,
2013-03-16 01:08:00,58.9,42.3,30.14,West,261,0.0,1.0,54,0.00,,,0.00,Wunderground v.1.13,2013-03-16 05:08:00,
2013-03-16 01:13:00,59.0,41.9,30.14,West,261,0.0,1.0,53,0.00,,,0.00,Wunderground v.1.13,2013-03-16 05:13:00,
2013-03-16 01:18:00,59.0,41.9,30.14,SW,235,0.0,1.0,53,0.00,,,0.00,Wunderground v.1.13,2013-03-16 05:18:00,
2013-03-16 01:24:00,58.8,42.2,30.13,SW,235,0.0,0.0,54,0.00,,,0.00,Wunderground v.1.13,2013-03-16 05:24:00,
2013-03-16 01:29:00,58.7,42.1,30.13,SW,235,0.0,0.0,54,0.00,,,0.00,Wunderground v.1.13,2013-03-16 05:29:00,
2013-03-16 01:35:00,58.6,42.0,30.13,WSW,240,0.0,0.0,54,0.00,,,0.00,Wunderground v.1.13,2013-03-16 05:35:00,
2013-03-16 01:41:00,58.4,41.8,30.13,WSW,240,1.0,1.0,54,0.00,,,0.00,Wunderground v.1.13,2013-03-16 05:41:00,
2013-03-16 01:46:00,58.4,41.8,30.13,WSW,240,0.0,1.0,54,0.00,,,0.00,Wunderground v.1.13,2013-03-16 05:46:00,
2013-03-16 01:51:00,58.2,41.6,30.13,SW,232,0.0,0.0,54,0.00,,,0.00,Wunderground v.1.13,2013-03-16 05:51:00,
2013-03-16 01:57:00,58.2,41.6,30.13,NW,321,1.0,1.0,54,0.00,,,0.00,Wunderground v.1.13,2013-03-16 05:57:00,
2013-03-16 02:02:00,58.2,41.6,30.13,NW,321,0.0,1.0,54,0.00,,,0.00,Wunderground v.1.13,2013-03-16 06:02:00,
2013-03-16 02:07:00,58.3,41.7,30.13,NW,321,0.0,2.0,54,0.00,,,0.00,Wunderground v.1.13,2013-03-16 06:07:00,
2013-03-16 02:12:00,58.3,41.7,30.13,South,175,0.0,1.0,54,0.00,,,0.00,Wunderground v.1.13,2013-03-16 06:12:00,
2013-03-16 02:17:00,58.3,41.7,30.13,NNW,333,0.0,3.0,54,0.00,,,0.00,Wunderground v.1.13,2013-03-16 06:17:00,
2013-03-16 02:22:00,58.2,41.6,30.13,NNW,333,0.0,1.0,54,0.00,,,0.00,Wunderground v.1.13,2013-03-16 06:22:00,
2013-03-16 02:27:00,58.1,41.5,30.13,NNW,333,0.0,1.0,54,0.00,,,0.00,Wunderground v.1.13,2013-03-16 06:27:00,
2013-03-16 02:32:00,58.1,41.5,30.13,NW,317,0.0,1.0,54,0.00,,,0.00,Wunderground v.1.13,2013-03-16 06:32:00,
2013-03-16 02:37:00,58.1,41.5,30.13,NW,317,0.0,1.0,54,0.00,,,0.00,Wunderground v.1.13,2013-03-16 06:37:00,
2013-03-16 02:42:00,58.0,41.4,30.13,NW,317,0.0,0.0,54,0.00,,,0.00,Wunderground v.1.13,2013-03-16 06:42:00,
2013-03-16 02:47:00,57.8,41.3,30.13,NW,317,0.0,0.0,54,0.00,,,0.00,Wunderground v.1.13,2013-03-16 06:47:00,
2013-03-16 02:52:00,58.0,41.4,30.13,NW,318,0.0,1.0,54,0.00,,,0.00,Wunderground v.1.13,2013-03-16 06:52:00,
2013-03-16 02:57:00,58.2,41.6,30.13,SSW,211,4.0,4.0,54,0.00,,,0.00,Wunderground v.1.13,2013-03-16 06:57:00,
2013-03-16 03:02:00,58.7,41.6,30.13,South,184,2.0,4.0,53,0.00,,,0.00,Wunderground v.1.13,2013-03-16 07:02:00,
2013-03-16 03:07:00,58.5,41.4,30.13,South,184,0.0,2.0,53,0.00,,,0.00,Wunderground v.1.13,2013-03-16 07:07:00,
2013-03-16 03:12:00,58.2,41.1,30.13,South,185,1.0,4.0,53,0.00,,,0.00,Wunderground v.1.13,2013-03-16 07:12:00,
2013-03-16 03:17:00,58.1,41.0,30.12,South,184,0.0,1.0,53,0.00,,,0.00,Wunderground v.1.13,2013-03-16 07:17:00,
2013-03-16 03:22:00,58.0,41.0,30.13,SSE,157,2.0,5.0,53,0.00,,,0.00,Wunderground v.1.13,2013-03-16 07:22:00,
2013-03-16 03:27:00,58.0,41.4,30.13,SE,135,0.0,2.0,54,0.00,,,0.00,Wunderground v.1.13,2013-03-16 07:27:00,
2013-03-16 03:32:00,57.8,41.3,30.12,SW,234,3.0,5.0,54,0.00,,,0.00,Wunderground v.1.13,2013-03-16 07:32:00,
2013-03-16 03:37:00,57.9,40.9,30.12,SW,234,0.0,1.0,53,0.00,,,0.00,Wunderground v.1.13,2013-03-16 07:37:00,
2013-03-16 03:43:00,57.8,41.3,30.12,WSW,238,0.0,3.0,54,0.00,,,0.00,Wunderground v.1.13,2013-03-16 07:43:00,
2013-03-16 03:48:00,57.7,41.2,30.12,SW,234,0.0,3.0,54,0.00,,,0.00,Wunderground v.1.13,2013-03-16 07:48:00,
2013-03-16 03:53:00,57.7,41.2,30.12,SSW,206,3.0,4.0,54,0.00,,,0.00,Wunderground v.1.13,2013-03-16 07:53:00,
2013-03-16 03:58:00,58.0,41.0,30.12,SW,232,0.0,3.0,53,0.00,,,0.00,Wunderground v.1.13,2013-03-16 07:58:00,
2013-03-16 04:03:00,57.8,41.3,30.11,SSW,212,0.0,1.0,54,0.00,,,0.00,Wunderground v.1.13,2013-03-16 08:03:00,
2013-03-16 04:08:00,57.6,41.1,30.11,SSW,192,0.0,4.0,54,0.00,,,0.00,Wunderground v.1.13,2013-03-16 08:08:00,
2013-03-16 04:13:00,57.5,41.0,30.10,SSW,205,1.0,1.0,54,0.00,,,0.00,Wunderground v.1.13,2013-03-16 08:13:00,
2013-03-16 04:18:00,57.3,41.3,30.11,SSW,203,0.0,2.0,55,0.00,,,0.00,Wunderground v.1.13,2013-03-16 08:18:00,
2013-03-16 04:23:00,57.7,41.2,30.10,WSW,238,0.0,4.0,54,0.00,,,0.00,Wunderground v.1.13,2013-03-16 08:23:00,
2013-03-16 04:28:00,57.7,41.2,30.10,WSW,250,2.0,3.0,54,0.00,,,0.00,Wunderground v.1.13,2013-03-16 08:28:00,
2013-03-16 04:33:00,57.7,41.2,30.10,SE,146,3.0,5.0,54,0.00,,,0.00,Wunderground v.1.13,2013-03-16 08:33:00,
2013-03-16 04:38:00,57.7,41.2,30.10,SW,214,0.0,2.0,54,0.00,,,0.00,Wunderground v.1.13,2013-03-16 08:38:00,
2013-03-16 04:43:00,57.6,41.1,30.10,SW,223,0.0,1.0,54,0.00,,,0.00,Wunderground v.1.13,2013-03-16 08:43:00,
2013-03-16 04:48:00,57.6,41.1,30.10,SW,220,0.0,3.0,54,0.00,,,0.00,Wunderground v.1.13,2013-03-16 08:48:00,
2013-03-16 04:53:00,57.9,40.9,30.10,WSW,243,0.0,7.0,53,0.00,,,0.00,Wunderground v.1.13,2013-03-16 08:53:00,
2013-03-16 04:58:00,57.8,40.8,30.10,WSW,243,1.0,2.0,53,0.00,,,0.00,Wunderground v.1.13,2013-03-16 08:58:00,
2013-03-16 05:03:00,57.6,40.6,30.09,WSW,243,0.0,1.0,53,0.00,,,0.00,Wunderground v.1.13,2013-03-16 09:03:00,
2013-03-16 05:08:00,57.5,41.0,30.09,WSW,243,0.0,1.0,54,0.00,,,0.00,Wunderground v.1.13,2013-03-16 09:08:00,
2013-03-16 05:13:00,57.5,41.0,30.09,WSW,243,0.0,1.0,54,0.00,,,0.00,Wunderground v.1.13,2013-03-16 09:13:00,
2013-03-16 05:18:00,57.3,40.8,30.09,WSW,243,0.0,0.0,54,0.00,,,0.00,Wunderground v.1.13,2013-03-16 09:18:00,
2013-03-16 05:23:00,57.1,41.1,30.09,WSW,243,1.0,1.0,55,0.00,,,0.00,Wunderground v.1.13,2013-03-16 09:23:00,
2013-03-16 05:28:00,56.9,40.9,30.09,WSW,244,2.0,2.0,55,0.00,,,0.00,Wunderground v.1.13,2013-03-16 09:28:00,
2013-03-16 05:33:00,56.8,40.8,30.09,NW,306,1.0,3.0,55,0.00,,,0.00,Wunderground v.1.13,2013-03-16 09:33:00,
2013-03-16 05:38:00,57.0,41.0,30.09,NW,325,0.0,5.0,55,0.00,,,0.00,Wunderground v.1.13,2013-03-16 09:38:00,
2013-03-16 05:43:00,57.0,41.0,30.09,NW,325,0.0,1.0,55,0.00,,,0.00,Wunderground v.1.13,2013-03-16 09:43:00,
2013-03-16 05:48:00,56.8,40.8,30.09,NW,325,0.0,1.0,55,0.00,,,0.00,Wunderground v.1.13,2013-03-16 09:48:00,
2013-03-16 05:53:00,56.6,41.1,30.09,NW,325,0.0,0.0,56,0.00,,,0.00,Wunderground v.1.13,2013-03-16 09:53:00,
2013-03-16 05:58:00,56.4,40.9,30.09,NW,325,0.0,0.0,56,0.00,,,0.00,Wunderground v.1.13,2013-03-16 09:58:00,
2013-03-16 06:03:00,56.2,40.7,30.09,NW,325,0.0,0.0,56,0.00,,,0.00,Wunderground v.1.13,2013-03-16 10:03:00,
2013-03-16 06:08:00,56.0,41.0,30.09,NW,325,0.0,0.0,57,0.00,,,0.00,Wunderground v.1.13,2013-03-16 10:08:00,
2013-03-16 06:13:00,55.9,40.9,30.09,NW,325,0.0,1.0,57,0.00,,,0.00,Wunderground v.1.13,2013-03-16 10:13:00,
2013-03-16 06:18:00,55.7,40.7,30.09,NW,325,0.0,0.0,57,0.00,,,0.00,Wunderground v.1.13,2013-03-16 10:18:00,
2013-03-16 06:23:00,55.5,40.5,30.10,NW,325,0.0,1.0,57,0.00,,,0.00,Wunderground v.1.13,2013-03-16 10:23:00,
2013-03-16 06:28:00,55.5,40.5,30.10,NW,325,0.0,0.0,57,0.00,,,0.00,Wunderground v.1.13,2013-03-16 10:28:00,
2013-03-16 06:33:00,55.5,40.5,30.10,NW,324,0.0,1.0,57,0.00,,,0.00,Wunderground v.1.13,2013-03-16 10:33:00,
2013-03-16 06:38:00,55.5,41.0,30.10,NW,324,0.0,1.0,58,0.00,,,0.00,Wunderground v.1.13,2013-03-16 10:38:00,
2013-03-16 06:43:00,55.3,40.8,30.10,NW,324,0.0,1.0,58,0.00,,,0.00,Wunderground v.1.13,2013-03-16 10:43:00,
2013-03-16 06:48:00,55.2,40.7,30.10,NW,324,1.0,2.0,58,0.00,,,0.00,Wunderground v.1.13,2013-03-16 10:48:00,
2013-03-16 06:54:00,55.4,40.9,30.11,SSW,202,0.0,2.0,58,0.00,,,0.00,Wunderground v.1.13,2013-03-16 10:54:00,
2013-03-16 06:59:00,55.4,40.9,30.11,WSW,246,0.0,3.0,58,0.00,,,0.00,Wunderground v.1.13,2013-03-16 10:59:00,
2013-03-16 07:04:00,55.3,40.8,30.11,SW,223,0.0,3.0,58,0.00,,,0.00,Wunderground v.1.13,2013-03-16 11:04:00,
2013-03-16 07:09:00,55.0,40.9,30.11,South,171,0.0,4.0,59,0.00,,,0.00,Wunderground v.1.13,2013-03-16 11:09:00,
2013-03-16 07:14:00,54.6,41.0,30.11,South,179,0.0,4.0,60,0.00,,,0.00,Wunderground v.1.13,2013-03-16 11:14:00,
2013-03-16 07:19:00,54.2,41.0,30.11,South,182,0.0,4.0,61,0.00,,,0.00,Wunderground v.1.13,2013-03-16 11:19:00,
2013-03-16 07:24:00,54.0,41.3,30.11,South,184,0.0,4.0,62,0.00,,,0.00,Wunderground v.1.13,2013-03-16 11:24:00,
2013-03-16 07:29:00,53.7,41.0,30.11,SSW,195,0.0,5.0,62,0.00,,,0.00,Wunderground v.1.13,2013-03-16 11:29:00,
2013-03-16 07:34:00,53.5,41.2,30.11,SSW,195,0.0,1.0,63,0.00,,,0.00,Wunderground v.1.13,2013-03-16 11:34:00,
2013-03-16 07:39:00,53.5,41.2,30.11,South,191,0.0,2.0,63,0.00,,,0.00,Wunderground v.1.13,2013-03-16 11:39:00,
2013-03-16 07:44:00,53.9,41.6,30.11,WNW,293,0.0,5.0,63,0.00,,,0.00,Wunderground v.1.13,2013-03-16 11:44:00,
2013-03-16 07:49:00,54.0,41.3,30.11,WNW,294,2.0,2.0,62,0.00,,,0.00,Wunderground v.1.13,2013-03-16 11:49:00,
2013-03-16 07:54:00,54.1,41.4,30.11,NW,323,1.0,3.0,62,0.00,,,0.00,Wunderground v.1.13,2013-03-16 11:54:00,
2013-03-16 07:59:00,54.1,41.4,30.11,NW,323,0.0,2.0,62,0.00,,,0.00,Wunderground v.1.13,2013-03-16 11:59:00,
2013-03-16 08:04:00,53.9,41.6,30.11,NW,316,2.0,2.0,63,0.00,,,0.00,Wunderground v.1.13,2013-03-16 12:04:00,
2013-03-16 08:09:00,53.9,41.6,30.11,WSW,250,0.0,2.0,63,0.00,,,0.00,Wunderground v.1.13,2013-03-16 12:09:00,
2013-03-16 08:14:00,53.7,41.8,30.10,WSW,250,0.0,3.0,64,0.00,,,0.00,Wunderground v.1.13,2013-03-16 12:14:00,
2013-03-16 08:19:00,53.7,41.8,30.11,WSW,247,0.0,2.0,64,0.00,,,0.00,Wunderground v.1.13,2013-03-16 12:19:00,
2013-03-16 08:24:00,53.7,41.8,30.11,WSW,242,0.0,3.0,64,0.00,,,0.00,Wunderground v.1.13,2013-03-16 12:24:00,
2013-03-16 08:29:00,53.8,41.9,30.11,WSW,257,0.0,4.0,64,0.00,,,0.00,Wunderground v.1.13,2013-03-16 12:29:00,
2013-03-16 08:34:00,53.8,41.9,30.11,WSW,256,1.0,1.0,64,0.00,,,0.00,Wunderground v.1.13,2013-03-16 12:34:00,
2013-03-16 08:39:00,53.8,42.3,30.11,SW,219,0.0,3.0,65,0.00,,,0.00,Wunderground v.1.13,2013-03-16 12:39:00,
2013-03-16 08:44:00,53.8,42.3,30.11,SSW,205,0.0,2.0,65,0.00,,,0.00,Wunderground v.1.13,2013-03-16 12:44:00,
2013-03-16 08:49:00,53.8,42.3,30.10,SSW,205,0.0,1.0,65,0.00,,,0.00,Wunderground v.1.13,2013-03-16 12:49:00,
2013-03-16 08:54:00,53.7,42.6,30.11,SW,217,1.0,2.0,66,0.00,,,0.00,Wunderground v.1.13,2013-03-16 12:54:00,
2013-03-16 08:59:00,53.9,42.8,30.11,WSW,241,0.0,3.0,66,0.00,,,0.00,Wunderground v.1.13,2013-03-16 12:59:00,
2013-03-16 09:04:00,53.9,42.8,30.11,SW,226,1.0,3.0,66,0.00,,,0.00,Wunderground v.1.13,2013-03-16 13:04:00,
2013-03-16 09:09:00,54.1,43.0,30.11,WSW,250,1.0,4.0,66,0.00,,,0.00,Wunderground v.1.13,2013-03-16 13:09:00,
2013-03-16 09:14:00,54.2,43.1,30.11,WSW,245,0.0,2.0,66,0.00,,,0.00,Wunderground v.1.13,2013-03-16 13:14:00,
2013-03-16 09:19:00,54.4,43.3,30.11,SW,230,0.0,4.0,66,0.00,,,0.00,Wunderground v.1.13,2013-03-16 13:19:00,
2013-03-16 09:24:00,54.5,43.4,30.11,West,265,0.0,6.0,66,0.00,,,0.00,Wunderground v.1.13,2013-03-16 13:24:00,
2013-03-16 09:29:00,54.7,43.6,30.11,West,259,0.0,3.0,66,0.00,,,0.00,Wunderground v.1.13,2013-03-16 13:29:00,
2013-03-16 09:34:00,54.7,43.6,30.10,West,259,1.0,2.0,66,0.00,,,0.00,Wunderground v.1.13,2013-03-16 13:34:00,
2013-03-16 09:39:00,55.0,43.8,30.10,WSW,250,2.0,4.0,66,0.00,,,0.00,Wunderground v.1.13,2013-03-16 13:39:00,
2013-03-16 09:44:00,55.4,43.8,30.11,SW,227,3.0,5.0,65,0.00,,,0.00,Wunderground v.1.13,2013-03-16 13:44:00,
2013-03-16 09:49:00,55.7,44.1,30.10,WSW,239,0.0,4.0,65,0.00,,,0.00,Wunderground v.1.13,2013-03-16 13:49:00,
2013-03-16 09:54:00,55.9,44.3,30.10,SSW,200,0.0,5.0,65,0.00,,,0.00,Wunderground v.1.13,2013-03-16 13:54:00,
2013-03-16 09:59:00,56.1,44.1,30.10,SW,232,2.0,6.0,64,0.00,,,0.00,Wunderground v.1.13,2013-03-16 13:59:00,
2013-03-16 10:04:00,56.3,44.3,30.10,SW,221,3.0,5.0,64,0.00,,,0.00,Wunderground v.1.13,2013-03-16 14:04:00,
2013-03-16 10:09:00,56.5,44.5,30.10,WSW,246,1.0,3.0,64,0.00,,,0.00,Wunderground v.1.13,2013-03-16 14:09:00,
2013-03-16 10:15:00,56.7,44.7,30.09,SSW,211,0.0,3.0,64,0.00,,,0.00,Wunderground v.1.13,2013-03-16 14:15:00,
2013-03-16 10:20:00,57.1,44.6,30.09,WSW,242,1.0,5.0,63,0.00,,,0.00,Wunderground v.1.13,2013-03-16 14:20:00,
2013-03-16 10:25:00,57.3,44.8,30.09,WSW,247,3.0,4.0,63,0.00,,,0.00,Wunderground v.1.13,2013-03-16 14:25:00,
2013-03-16 10:30:00,57.8,45.3,30.09,SW,214,1.0,1.0,63,0.00,,,0.00,Wunderground v.1.13,2013-03-16 14:30:00,
2013-03-16 10:35:00,58.2,45.2,30.09,NW,312,1.0,3.0,62,0.00,,,0.00,Wunderground v.1.13,2013-03-16 14:35:00,
2013-03-16 10:40:00,58.8,45.4,30.09,NNW,346,2.0,10.0,61,0.00,,,0.00,Wunderground v.1.13,2013-03-16 14:40:00,
2013-03-16 10:45:00,59.4,45.5,30.09,WNW,295,5.0,7.0,60,0.00,,,0.00,Wunderground v.1.13,2013-03-16 14:45:00,
2013-03-16 10:50:00,59.7,45.8,30.09,SW,226,5.0,5.0,60,0.00,,,0.00,Wunderground v.1.13,2013-03-16 14:50:00,
2013-03-16 10:55:00,60.5,46.1,30.09,WSW,246,6.0,8.0,59,0.00,,,0.00,Wunderground v.1.13,2013-03-16 14:55:00,
2013-03-16 11:00:00,61.0,46.1,30.08,NW,312,0.0,3.0,58,0.00,,,0.00,Wunderground v.1.13,2013-03-16 15:00:00,
2013-03-16 11:05:00,61.1,45.7,30.08,West,267,0.0,3.0,57,0.00,,,0.00,Wunderground v.1.13,2013-03-16 15:05:00,
2013-03-16 11:10:00,61.2,45.8,30.08,WSW,244,5.0,5.0,57,0.00,,,0.00,Wunderground v.1.13,2013-03-16 15:10:00,
2013-03-16 11:15:00,61.6,46.2,30.08,SW,234,3.0,3.0,57,0.00,,,0.00,Wunderground v.1.13,2013-03-16 15:15:00,
2013-03-16 11:20:00,62.0,46.1,30.07,NW,325,4.0,4.0,56,0.00,,,0.00,Wunderground v.1.13,2013-03-16 15:20:00,
2013-03-16 11:25:00,62.5,46.1,30.07,WNW,290,2.0,2.0,55,0.00,,,0.00,Wunderground v.1.13,2013-03-16 15:25:00,
2013-03-16 11:30:00,63.1,46.2,30.07,SW,225,3.0,4.0,54,0.00,,,0.00,Wunderground v.1.13,2013-03-16 15:30:00,
2013-03-16 11:35:00,62.6,45.7,30.07,SW,232,8.0,8.0,54,0.00,,,0.00,Wunderground v.1.13,2013-03-16 15:35:00,
2013-03-16 11:40:00,62.8,45.9,30.07,WSW,242,1.0,5.0,54,0.00,,,0.00,Wunderground v.1.13,2013-03-16 15:40:00,
2013-03-16 11:45:00,63.3,45.9,30.06,SW,234,3.0,5.0,53,0.00,,,0.00,Wunderground v.1.13,2013-03-16 15:45:00,
2013-03-16 11:50:00,63.5,46.1,30.06,SW,219,2.0,4.0,53,0.00,,,0.00,Wunderground v.1.13,2013-03-16 15:50:00,
2013-03-16 11:55:00,63.8,45.8,30.06,SW,232,2.0,7.0,52,0.00,,,0.00,Wunderground v.1.13,2013-03-16 15:55:00,
2013-03-16 12:00:00,63.9,45.9,30.06,WSW,257,3.0,6.0,52,0.00,,,0.00,Wunderground v.1.13,2013-03-16 16:00:00,
2013-03-16 12:05:00,64.8,45.7,30.06,West,275,3.0,4.0,50,0.00,,,0.00,Wunderground v.1.13,2013-03-16 16:05:00,
2013-03-16 12:10:00,65.3,45.6,30.05,SSW,211,2.0,6.0,49,0.00,,,0.00,Wunderground v.1.13,2013-03-16 16:10:00,
2013-03-16 12:15:00,65.7,44.9,30.05,SW,215,10.0,16.0,47,0.00,,,0.00,Wunderground v.1.13,2013-03-16 16:15:00,
2013-03-16 12:20:00,65.0,45.4,30.05,West,265,3.0,4.0,49,0.00,,,0.00,Wunderground v.1.13,2013-03-16 16:20:00,
2013-03-16 12:25:00,65.4,45.2,30.05,SW,233,1.0,5.0,48,0.00,,,0.00,Wunderground v.1.13,2013-03-16 16:25:00,
2013-03-16 12:30:00,65.4,45.7,30.05,WSW,244,4.0,6.0,49,0.00,,,0.00,Wunderground v.1.13,2013-03-16 16:30:00,
2013-03-16 12:35:00,65.5,44.7,30.06,NW,310,3.0,7.0,47,0.00,,,0.00,Wunderground v.1.13,2013-03-16 16:35:00,
2013-03-16 12:40:00,65.6,45.4,30.05,WSW,243,2.0,4.0,48,0.00,,,0.00,Wunderground v.1.13,2013-03-16 16:40:00,
2013-03-16 12:45:00,65.4,44.6,30.05,South,188,6.0,12.0,47,0.00,,,0.00,Wunderground v.1.13,2013-03-16 16:45:00,
2013-03-16 12:50:00,65.6,44.8,30.05,WSW,255,2.0,10.0,47,0.00,,,0.00,Wunderground v.1.13,2013-03-16 16:50:00,
2013-03-16 12:55:00,66.1,45.3,30.05,SW,231,1.0,4.0,47,0.00,,,0.00,Wunderground v.1.13,2013-03-16 16:55:00,
2013-03-16 13:00:00,66.2,44.8,30.04,WNW,288,3.0,7.0,46,0.00,,,0.00,Wunderground v.1.13,2013-03-16 17:00:00,
2013-03-16 13:05:00,66.3,45.5,30.05,West,265,3.0,5.0,47,0.00,,,0.00,Wunderground v.1.13,2013-03-16 17:05:00,
2013-03-16 13:10:00,66.7,45.3,30.04,West,279,2.0,4.0,46,0.00,,,0.00,Wunderground v.1.13,2013-03-16 17:10:00,
2013-03-16 13:15:00,66.8,44.8,30.04,NW,318,2.0,4.0,45,0.00,,,0.00,Wunderground v.1.13,2013-03-16 17:15:00,
2013-03-16 13:21:00,66.6,44.6,30.04,North,355,1.0,10.0,45,0.00,,,0.00,Wunderground v.1.13,2013-03-16 17:21:00,
2013-03-16 13:26:00,66.9,44.9,30.04,WSW,248,5.0,6.0,45,0.00,,,0.00,Wunderground v.1.13,2013-03-16 17:26:00,
2013-03-16 13:31:00,67.2,45.1,30.03,SW,236,3.0,4.0,45,0.00,,,0.00,Wunderground v.1.13,2013-03-16 17:31:00,
2013-03-16 13:36:00,67.6,44.9,30.03,West,281,1.0,7.0,44,0.00,,,0.00,Wunderground v.1.13,2013-03-16 17:36:00,
2013-03-16 13:41:00,67.6,45.5,30.02,West,276,4.0,6.0,45,0.00,,,0.00,Wunderground v.1.13,2013-03-16 17:41:00,
2013-03-16 13:46:00,68.0,45.9,30.02,NW,304,2.0,3.0,45,0.00,,,0.00,Wunderground v.1.13,2013-03-16 17:46:00,
2013-03-16 13:52:00,68.0,45.3,30.02,WNW,292,2.0,8.0,44,0.00,,,0.00,Wunderground v.1.13,2013-03-16 17:52:00,
2013-03-16 13:57:00,68.0,45.3,30.02,SW,223,3.0,4.0,44,0.00,,,0.00,Wunderground v.1.13,2013-03-16 17:57:00,
2013-03-16 14:02:00,68.3,46.1,30.02,West,279,3.0,3.0,45,0.00,,,0.00,Wunderground v.1.13,2013-03-16 18:02:00,
2013-03-16 14:07:00,68.1,45.4,30.01,SW,227,1.0,6.0,44,0.00,,,0.00,Wunderground v.1.13,2013-03-16 18:07:00,
2013-03-16 14:12:00,67.9,45.2,30.01,SSW,211,3.0,7.0,44,0.00,,,0.00,Wunderground v.1.13,2013-03-16 18:12:00,
2013-03-16 14:17:00,67.3,45.2,30.01,SW,215,1.0,6.0,45,0.00,,,0.00,Wunderground v.1.13,2013-03-16 18:17:00,
2013-03-16 14:22:00,68.0,45.9,30.01,SSW,197,4.0,5.0,45,0.00,,,0.00,Wunderground v.1.13,2013-03-16 18:22:00,
2013-03-16 14:27:00,68.1,45.4,30.01,SSW,212,7.0,10.0,44,0.00,,,0.00,Wunderground v.1.13,2013-03-16 18:27:00,
2013-03-16 14:32:00,67.9,45.8,30.00,SW,232,7.0,7.0,45,0.00,,,0.00,Wunderground v.1.13,2013-03-16 18:32:00,
2013-03-16 14:37:00,68.3,44.9,30.01,WSW,257,2.0,7.0,43,0.00,,,0.00,Wunderground v.1.13,2013-03-16 18:37:00,
2013-03-16 14:42:00,68.7,45.9,30.00,WNW,302,1.0,7.0,44,0.00,,,0.00,Wunderground v.1.13,2013-03-16 18:42:00,
2013-03-16 14:47:00,69.2,45.7,30.00,ESE,117,1.0,5.0,43,0.00,,,0.00,Wunderground v.1.13,2013-03-16 18:47:00,
2013-03-16 14:52:00,69.8,45.7,30.00,WNW,291,2.0,6.0,42,0.00,,,0.00,Wunderground v.1.13,2013-03-16 18:52:00,
2013-03-16 14:58:00,69.9,45.8,30.00,NW,311,2.0,6.0,42,0.00,,,0.00,Wunderground v.1.13,2013-03-16 18:58:00,
2013-03-16 15:03:00,69.5,46.0,30.00,SW,216,0.0,7.0,43,0.00,,,0.00,Wunderground v.1.13,2013-03-16 19:03:00,
2013-03-16 15:08:00,70.1,45.9,30.00,SSW,196,3.0,9.0,42,0.00,,,0.00,Wunderground v.1.13,2013-03-16 19:08:00,
2013-03-16 15:13:00,70.2,45.4,29.99,NW,309,4.0,8.0,41,0.00,,,0.00,Wunderground v.1.13,2013-03-16 19:13:00,
2013-03-16 15:18:00,70.0,45.8,29.99,West,259,1.0,9.0,42,0.00,,,0.00,Wunderground v.1.13,2013-03-16 19:18:00,
2013-03-16 15:23:00,70.5,46.3,29.99,WSW,245,1.0,5.0,42,0.00,,,0.00,Wunderground v.1.13,2013-03-16 19:23:00,
2013-03-16 15:28:00,70.9,46.0,29.99,NNW,337,2.0,6.0,41,0.00,,,0.00,Wunderground v.1.13,2013-03-16 19:28:00,
2013-03-16 15:33:00,70.7,46.5,29.98,WSW,242,3.0,4.0,42,0.00,,,0.00,Wunderground v.1.13,2013-03-16 19:33:00,
2013-03-16 15:38:00,70.9,46.7,29.98,West,274,2.0,5.0,42,0.00,,,0.00,Wunderground v.1.13,2013-03-16 19:38:00,
2013-03-16 15:48:00,71.1,46.2,29.99,WSW,254,1.0,1.0,41,0.00,,,0.00,Wunderground v.1.13,2013-03-16 19:48:00,